Home > Time Zones > World Clock > Weather > China > Sian > Past weeks

Flag for China Weather past 2 weeks in Sian, Shaanxi, China

Now
55 °F

Fog.


Feels Like: 55 °F
Forecast: 56 / 79 °F
Wind: 1 mph from North

Location: Xian/Xianyang

Current Time: Oct 25, 2014 at 9:07:31 PM

Latest Report: Oct 25, 2014 at 8:00 PM


Visibility: 3 mi

Pressure: 29.95 "Hg

Humidity: 88%

Dew point: 52 °F

Location of SianLocation

Historic Weather in Sian — Graph

°F

Sian temperature yesterday

Maximum temperature yesterday: 75 °F (at 5:00 PM)
Minimum temperature yesterday: 43 °F (at 6:00 AM)
Average temperature yesterday: 56 °F

Past Weeks' High & Low Weather Summary

 TemperatureHumidityPressure
High77 °F (Oct 25, 2:00 PM)100% (Oct 20, 11:00 PM)30.57 "Hg (Oct 20, 11:00 PM)
Low37 °F (Oct 14, 6:00 AM)39% (Oct 24, 5:00 PM)29.92 "Hg (Oct 24, 3:00 PM)
Average57 °F79%30.16 "Hg
* Reported Oct 10 7:00 PM — Oct 25 7:00 PM, Sian, Weather by CustomWeather, © 2014

Note: Actual official high and low records may vary slightly from our data, if they occured in-between our weather recording intervals... More about our weather records

Advertising

Sian weather history for previous 24 hours

 ConditionsComfort  
Time TempWeatherWind HumidityBarometerVisibility
7:00 PM
Oct 25
57 °FFog.1 mph77%29.95 "Hg3 mi
6:00 PM70 °FClear.No wind46%29.92 "Hg4 mi
5:00 PM75 °FClear.3 mph44%29.92 "Hg4 mi
4:00 PM77 °FHaze.3 mph42%29.92 "Hg3 mi
3:00 PM77 °FHaze.1 mph44%29.92 "Hg3 mi
2:00 PM77 °FHaze.1 mph44%29.95 "Hg3 mi
1:00 PM73 °FHaze.1 mph47%29.98 "Hg2 mi
12:00 PM70 °FHaze.3 mph53%30.01 "Hg2 mi
11:00 AM68 °FHaze.1 mph56%30.01 "Hg2 mi
10:00 AM63 °FFog.1 mph73%30.04 "Hg1 mi
9:00 AM55 °FFog.No wind88%30.04 "Hg1 mi
8:00 AM46 °FFog.No wind100%30.01 "Hg1 mi
7:00 AM43 °FFog.1 mph100%29.98 "Hg1 mi
6:00 AM43 °FFog.No wind100%29.98 "Hg1 mi
5:00 AM45 °FFog.No wind93%29.95 "Hg1 mi
4:00 AM46 °FFog.1 mph93%29.95 "Hg1 mi
3:00 AM48 °FFog.3 mph100%29.95 "Hg1 mi
2:00 AM46 °FFog.1 mph93%29.98 "Hg1 mi
1:00 AM48 °FFog.3 mph94%29.95 "Hg1 mi
12:00 AM48 °FFog.1 mph94%29.98 "Hg2 mi
11:00 PM
Oct 24
50 °FFog.3 mph94%29.98 "Hg2 mi
10:00 PM50 °FClear.No wind94%29.98 "Hg4 mi
9:00 PM50 °FClear.No wind94%29.95 "Hg4 mi
Weather by CustomWeather, © 2014

See weather overviewHow to use our weather pages